Location: Owatonna
(44.0840°N, 93.2260°W)
Time: 09:12:43
(UTC-05:00)

Tiangong 1 - Visible Passes

Search period start: 05 May 2016 00:00
Search period end: 15 May 2016 00:00
Orbit: 374 x 390 km, 42.8° (Epoch: 05 May)

Date Brightness Start Highest point End Pass type
(mag) Time Alt. Az. Time Alt. Az. Time Alt. Az.
07 May 3.1 21:38:27 10° S 21:39:25 14° S 21:39:25 14° S visible
08 May 2.3 22:13:27 10° SW 22:15:18 27° SSW 22:15:18 27° SSW visible
09 May 2.3 21:13:24 10° SSW 21:16:00 24° SSE 21:18:27 11° E visible
09 May 2.9 22:49:17 10° WSW 22:50:38 23° WSW 22:50:38 23° WSW visible
10 May 1.3 21:48:51 10° WSW 21:51:54 48° SSE 21:53:24 25° ESE visible
10 May 4.0 23:25:20 10° W 23:25:35 12° W 23:25:35 12° W visible
11 May 0.9 22:24:45 10° W 22:27:53 69° S 22:28:03 67° SSE visible
12 May 1.1 21:24:10 10° WSW 21:27:17 61° S 21:30:19 10° E visible
12 May 2.6 23:00:45 10° W 23:02:28 29° W 23:02:28 29° W visible
13 May 1.0 22:00:05 10° W 22:03:12 69° S 22:04:34 30° ESE visible
14 May 1.5 22:36:00 10° W 22:38:43 45° SW 22:38:43 45° SW visible
